User: anonymous   Login
Location: Columbia
(38.9520°N, 92.3340°W)
Time: 22:56:56
(UTC-06:00)
Language:

Iridium 15 - Orbit

View from above orbital plane
View from above orbital plane
View from above satellite
View from above satellite

Ground track
Ground track

The orbit data is extracted from the following two-line orbital elements,

1 24869U 97034A   16344.44146148  .00000183  00000-0  58271-4 0  9991
2 24869  86.3966 101.4441 0001889 101.6510 258.4898 14.34213101 16713
Epoch (UTC): 09 December 2016 10:35:42
Eccentricity: 0.0001889
inclination: 86.3966°
perigee height: 776 km
apogee height: 779 km
right ascension of ascending node: 101.4441°
argument of perigee: 101.6510°
revolutions per day: 14.34213101
mean anomaly at epoch: 258.4898°
orbit number at epoch: 1671

The dashed part of the orbit path shows where the satellite is in the earth's shadow,  

DLR